| time (UTC) | temp F | wind direction | speed MPH | gust MPH | rain 1hr in | rain 24hr in | rain mn in | humidity % | barometer mb |
| 20260507120142 | 53 | 332 | 8.0 | 11.0 | 0.00 | 0.00 | 0.00 | 25 | 1018.9 |
| 20260507115142 | 54 | 344 | 7.0 | 10.0 | 0.00 | 0.00 | 0.00 | 24 | 1019.1 |
| 20260507114142 | 54 | 348 | 7.0 | 10.0 | 0.00 | 0.00 | 0.00 | 24 | 1019.1 |
| 20260507113143 | 55 | 0 | 0.0 | 3.0 | 0.00 | 0.00 | 0.00 | 23 | 1019.1 |
| 20260507112142 | 55 | 336 | 2.0 | 8.0 | 0.00 | 0.00 | 0.00 | 24 | 1019.2 |
| 20260507111142 | 55 | 337 | 3.0 | 8.0 | 0.00 | 0.00 | 0.00 | 23 | 1019.2 |
| 20260507110142 | 55 | 332 | 2.0 | 8.0 | 0.00 | 0.00 | 0.00 | 22 | 1019.2 |
| 20260507105142 | 55 | 335 | 5.0 | 14.0 | 0.00 | 0.00 | 0.00 | 23 | 1019.1 |
| 20260507104142 | 55 | 334 | 7.0 | 14.0 | 0.00 | 0.00 | 0.00 | 23 | 1019.1 |
| 20260507103142 | 55 | 334 | 8.0 | 15.0 | 0.00 | 0.00 | 0.00 | 22 | 1019.0 |
| 20260507102143 | 55 | 333 | 8.0 | 14.0 | 0.00 | 0.00 | 0.00 | 21 | 1019.0 |
| 20260507100143 | 53 | 329 | 7.0 | 14.0 | 0.00 | 0.00 | 0.00 | 23 | 1019.1 |
| 20260507095143 | 53 | 329 | 10.0 | 14.0 | 0.00 | 0.00 | 0.00 | 24 | 1019.1 |
| 20260507094142 | 53 | 333 | 10.0 | 13.0 | 0.00 | 0.00 | 0.00 | 23 | 1019.1 |
| 20260507093144 | 55 | 339 | 7.0 | 13.0 | 0.00 | 0.00 | 0.00 | 22 | 1019.1 |
| 20260507092142 | 55 | 329 | 7.0 | 15.0 | 0.00 | 0.00 | 0.00 | 21 | 1019.1 |
| 20260507091142 | 55 | 327 | 9.0 | 14.0 | 0.00 | 0.00 | 0.00 | 21 | 1019.3 |
| 20260507090142 | 54 | 328 | 5.0 | 13.0 | 0.00 | 0.00 | 0.00 | 22 | 1019.3 |
| 20260507085142 | 54 | 330 | 4.0 | 15.0 | 0.00 | 0.00 | 0.00 | 21 | 1019.3 |
| 20260507084142 | 54 | 333 | 8.0 | 16.0 | 0.00 | 0.00 | 0.00 | 23 | 1019.4 |
| 20260507083143 | 55 | 334 | 7.0 | 14.0 | 0.00 | 0.00 | 0.00 | 22 | 1019.3 |
| 20260507082143 | 55 | 324 | 8.0 | 13.0 | 0.00 | 0.00 | 0.00 | 22 | 1019.4 |
| 20260507080144 | 54 | 332 | 5.0 | 15.0 | 0.00 | 0.00 | 0.00 | 24 | 1019.5 |
| 20260507075142 | 54 | 332 | 9.0 | 17.0 | 0.00 | 0.00 | 0.00 | 24 | 1019.6 |
| 20260507074142 | 55 | 336 | 10.0 | 14.0 | 0.00 | 0.00 | 0.00 | 23 | 1019.6 |
| 20260507073144 | 56 | 335 | 11.0 | 14.0 | 0.00 | 0.00 | 0.00 | 22 | 1019.7 |
| 20260507072143 | 57 | 331 | 7.0 | 12.0 | 0.00 | 0.00 | 0.00 | 22 | 1019.8 |
| 20260507071142 | 56 | 241 | 9.0 | 18.0 | 0.00 | 0.00 | 0.00 | 22 | 1019.8 |
| 20260507070142 | 56 | 250 | 10.0 | 15.0 | 0.00 | 0.00 | 0.00 | 22 | 1019.7 |
| 20260507065144 | 56 | 261 | 10.0 | 15.0 | 0.00 | 0.00 | 0.00 | 22 | 1019.7 |
| 20260507064144 | 57 | 267 | 11.0 | 16.0 | 0.00 | 0.00 | 0.00 | 22 | 1019.8 |
| 20260507063143 | 56 | 263 | 11.0 | 17.0 | 0.00 | 0.00 | 0.00 | 22 | 1019.7 |
| 20260507061143 | 56 | 338 | 10.0 | 14.0 | 0.00 | 0.00 | 0.00 | 22 | 1019.8 |
| 20260507060143 | 57 | 325 | 8.0 | 17.0 | 0.00 | 0.00 | 0.00 | 22 | 1019.9 |
| 20260507055143 | 57 | 287 | 11.0 | 16.0 | 0.00 | 0.00 | 0.00 | 22 | 1019.8 |
| 20260507054143 | 56 | 263 | 11.0 | 15.0 | 0.00 | 0.00 | 0.00 | 22 | 1019.9 |
| 20260507053143 | 56 | 266 | 10.0 | 15.0 | 0.00 | 0.00 | 0.00 | 23 | 1019.9 |
| 20260507052143 | 56 | 348 | 6.0 | 14.0 | 0.00 | 0.00 | 0.00 | 23 | 1019.7 |
| 20260507051143 | 56 | 314 | 6.0 | 14.0 | 0.00 | 0.00 | 0.00 | 23 | 1019.7 |
| 20260507050143 | 57 | 340 | 5.0 | 16.0 | 0.00 | 0.00 | 0.00 | 22 | 1019.5 |
| 20260507045143 | 57 | 343 | 13.0 | 19.0 | 0.00 | 0.00 | 0.00 | 22 | 1019.3 |
| 20260507044143 | 57 | 356 | 12.0 | 18.0 | 0.00 | 0.00 | 0.00 | 22 | 1019.2 |
| 20260507043143 | 58 | 13 | 16.0 | 26.0 | 0.00 | 0.00 | 0.00 | 22 | 1019.1 |
| 20260507042143 | 58 | 15 | 13.0 | 27.0 | 0.00 | 0.00 | 0.00 | 22 | 1018.8 |
| 20260507041143 | 58 | 357 | 17.0 | 26.0 | 0.00 | 0.00 | 0.00 | 22 | 1018.8 |
| 20260507040144 | 58 | 344 | 13.0 | 25.0 | 0.00 | 0.00 | 0.00 | 23 | 1018.8 |
| 20260507035143 | 58 | 342 | 9.0 | 20.0 | 0.00 | 0.00 | 0.00 | 24 | 1018.7 |
| 20260507034143 | 59 | 341 | 8.0 | 15.0 | 0.00 | 0.00 | 0.00 | 24 | 1018.5 |
| 20260507033143 | 59 | 344 | 9.0 | 13.0 | 0.00 | 0.00 | 0.00 | 25 | 1018.5 |
| 20260507032143 | 60 | 337 | 6.0 | 15.0 | 0.00 | 0.00 | 0.00 | 24 | 1018.3 |
| 20260507031143 | 60 | 343 | 6.0 | 13.0 | 0.00 | 0.00 | 0.00 | 24 | 1018.2 |
| 20260507030143 | 61 | 8 | 5.0 | 13.0 | 0.00 | 0.00 | 0.00 | 23 | 1018.1 |
| 20260507025143 | 61 | 350 | 8.0 | 12.0 | 0.00 | 0.00 | 0.00 | 22 | 1018.1 |
| 20260507024143 | 62 | 358 | 6.0 | 11.0 | 0.00 | 0.00 | 0.00 | 20 | 1017.9 |
| 20260507023143 | 63 | 0 | 0.0 | 9.0 | 0.00 | 0.00 | 0.00 | 20 | 1017.6 |
| 20260507022143 | 63 | 56 | 7.0 | 11.0 | 0.00 | 0.00 | 0.00 | 19 | 1017.4 |
| 20260507021144 | 64 | 3 | 5.0 | 12.0 | 0.00 | 0.00 | 0.00 | 19 | 1017.4 |
| 20260507020143 | 64 | 47 | 6.0 | 15.0 | 0.00 | 0.00 | 0.00 | 19 | 1017.3 |
| 20260507015143 | 65 | 42 | 7.0 | 16.0 | 0.00 | 0.00 | 0.00 | 19 | 1017.2 |
| 20260507014143 | 66 | 64 | 12.0 | 17.0 | 0.00 | 0.00 | 0.00 | 18 | 1017.1 |
| 20260507013143 | 66 | 65 | 10.0 | 17.0 | 0.00 | 0.00 | 0.00 | 19 | 1016.9 |
| 20260507012143 | 67 | 65 | 5.0 | 12.0 | 0.00 | 0.00 | 0.00 | 19 | 1016.8 |
| 20260507011143 | 67 | 47 | 11.0 | 18.0 | 0.00 | 0.00 | 0.00 | 18 | 1016.8 |
| 20260507010143 | 68 | 57 | 11.0 | 18.0 | 0.00 | 0.00 | 0.00 | 19 | 1016.6 |
| 20260507005144 | 68 | 71 | 9.0 | 12.0 | 0.00 | 0.00 | 0.00 | 19 | 1016.6 |
| 20260507004143 | 68 | 17 | 8.0 | 19.0 | 0.00 | 0.00 | 0.00 | 20 | 1016.6 |
| 20260507003234 | 69 | 62 | 5.0 | 14.0 | 0.00 | 0.00 | 0.00 | 20 | 1016.3 |
| 20260507003144 | 69 | 62 | 5.0 | 14.0 | 0.00 | 0.00 | 0.00 | 20 | 1016.3 |
| 20260507002144 | 70 | 61 | 3.0 | 17.0 | 0.00 | 0.00 | 0.00 | 20 | 1016.3 |
| 20260507001144 | 69 | 24 | 11.0 | 24.0 | 0.00 | 0.00 | 0.00 | 21 | 1016.2 |
| 20260506235144 | 70 | 24 | 4.0 | 14.0 | 0.00 | 0.00 | 0.00 | 23 | 1015.2 |
| 20260506234144 | 71 | 57 | 8.0 | 14.0 | 0.00 | 0.00 | 0.00 | 21 | 1015.2 |
| 20260506233145 | 71 | 16 | 4.0 | 18.0 | 0.00 | 0.00 | 0.00 | 22 | 1015.2 |
| 20260506232144 | 73 | 29 | 9.0 | 17.0 | 0.00 | 0.00 | 0.00 | 22 | 1015.1 |
| 20260506231144 | 72 | 357 | 10.0 | 16.0 | 0.00 | 0.00 | 0.00 | 24 | 1015.0 |
| 20260506230144 | 72 | 25 | 6.0 | 20.0 | 0.00 | 0.00 | 0.00 | 23 | 1015.1 |
| 20260506225144 | 73 | 25 | 3.0 | 10.0 | 0.00 | 0.00 | 0.00 | 24 | 1015.1 |
| 20260506224144 | 73 | 347 | 11.0 | 16.0 | 0.00 | 0.00 | 0.00 | 24 | 1015.2 |
| 20260506223144 | 73 | 16 | 12.0 | 23.0 | 0.00 | 0.00 | 0.00 | 23 | 1015.3 |
| 20260506222144 | 73 | 45 | 13.0 | 19.0 | 0.00 | 0.00 | 0.00 | 24 | 1015.2 |
| 20260506221144 | 73 | 0 | 0.0 | 7.0 | 0.00 | 0.00 | 0.00 | 26 | 1015.5 |
| 20260506220144 | 71 | 34 | 5.0 | 13.0 | 0.00 | 0.00 | 0.00 | 27 | 1015.7 |
| 20260506215144 | 72 | 28 | 10.0 | 17.0 | 0.00 | 0.00 | 0.00 | 24 | 1015.8 |
| 20260506214144 | 70 | 353 | 1.0 | 10.0 | 0.00 | 0.00 | 0.00 | 29 | 1015.9 |
| 20260506213145 | 69 | 54 | 5.0 | 16.0 | 0.00 | 0.00 | 0.00 | 30 | 1015.9 |
| 20260506212144 | 69 | 50 | 13.0 | 17.0 | 0.00 | 0.00 | 0.00 | 28 | 1015.9 |
| 20260506211144 | 72 | 79 | 7.0 | 14.0 | 0.00 | 0.00 | 0.00 | 27 | 1015.9 |
| 20260506210144 | 71 | 27 | 12.0 | 20.0 | 0.00 | 0.00 | 0.00 | 29 | 1016.1 |
| 20260506205144 | 71 | 32 | 10.0 | 16.0 | 0.00 | 0.00 | 0.00 | 28 | 1016.0 |
| 20260506204145 | 70 | 40 | 16.0 | 22.0 | 0.00 | 0.00 | 0.00 | 29 | 1016.0 |
| 20260506203144 | 69 | 154 | 5.0 | 15.0 | 0.00 | 0.00 | 0.00 | 30 | 1016.3 |
| 20260506202144 | 68 | 173 | 7.0 | 14.0 | 0.00 | 0.00 | 0.00 | 32 | 1016.4 |
| 20260506201144 | 67 | 59 | 1.0 | 11.0 | 0.00 | 0.00 | 0.00 | 34 | 1016.4 |
| 20260506200144 | 67 | 153 | 8.0 | 14.0 | 0.00 | 0.00 | 0.00 | 32 | 1016.5 |
| 20260506195145 | 65 | 220 | 1.0 | 6.0 | 0.00 | 0.00 | 0.00 | 33 | 1016.7 |
| 20260506194146 | 65 | 177 | 4.0 | 11.0 | 0.00 | 0.00 | 0.00 | 34 | 1016.6 |
| 20260506193144 | 66 | 147 | 6.0 | 15.0 | 0.00 | 0.00 | 0.00 | 32 | 1016.6 |
| 20260506192145 | 65 | 160 | 12.0 | 18.0 | 0.00 | 0.00 | 0.00 | 35 | 1016.6 |
| 20260506191144 | 65 | 166 | 9.0 | 17.0 | 0.00 | 0.00 | 0.00 | 34 | 1016.5 |
| 20260506190144 | 66 | 0 | 0.0 | 12.0 | 0.00 | 0.00 | 0.00 | 34 | 1016.6 |
| 20260506185144 | 67 | 180 | 4.0 | 10.0 | 0.00 | 0.00 | 0.00 | 34 | 1016.6 |
| 20260506184144 | 66 | 0 | 0.0 | 7.0 | 0.00 | 0.00 | 0.00 | 34 | 1016.8 |
| 20260506183145 | 65 | 176 | 1.0 | 16.0 | 0.00 | 0.00 | 0.00 | 32 | 1016.9 |
| 20260506182144 | 68 | 114 | 11.0 | 16.0 | 0.00 | 0.00 | 0.00 | 32 | 1016.8 |
| 20260506165146 | 63 | 350 | 1.0 | 6.0 | 0.00 | 0.00 | 0.00 | 39 | 1016.1 |
| 20260506164144 | 65 | 34 | 5.0 | 14.0 | 0.00 | 0.00 | 0.00 | 38 | 1016.1 |
| 20260506163145 | 64 | 339 | 9.0 | 19.0 | 0.00 | 0.00 | 0.00 | 38 | 1016.0 |
| 20260506162145 | 63 | 28 | 5.0 | 17.0 | 0.00 | 0.00 | 0.00 | 40 | 1016.1 |
| 20260506161144 | 63 | 352 | 6.0 | 16.0 | 0.00 | 0.00 | 0.00 | 41 | 1016.2 |
| 20260506155145 | 61 | 348 | 2.0 | 9.0 | 0.00 | 0.00 | 0.00 | 45 | 1016.3 |
| 20260506154145 | 60 | 0 | 0.0 | 7.0 | 0.00 | 0.00 | 0.00 | 44 | 1016.5 |
| 20260506152145 | 59 | 0 | 0.0 | 4.0 | 0.00 | 0.00 | 0.00 | 48 | 1016.3 |
| 20260506151146 | 59 | 58 | 2.0 | 6.0 | 0.00 | 0.00 | 0.00 | 45 | 1016.4 |
| 20260506145145 | 58 | 106 | 1.0 | 6.0 | 0.00 | 0.00 | 0.00 | 42 | 1016.3 |
| 20260506144145 | 57 | 113 | 1.0 | 6.0 | 0.00 | 0.00 | 0.00 | 43 | 1016.1 |
| 20260506143145 | 56 | 0 | 0.0 | 3.0 | 0.00 | 0.00 | 0.00 | 45 | 1016.1 |
| 20260506142145 | 56 | 0 | 0.0 | 3.0 | 0.00 | 0.00 | 0.00 | 44 | 1015.9 |
| 20260506141145 | 55 | 0 | 0.0 | 1.0 | 0.00 | 0.00 | 0.00 | 46 | 1014.9 |
| 20260506140145 | 54 | 0 | 0.0 | 0.0 | 0.00 | 0.00 | 0.00 | 46 | 1014.8 |
| 20260506135145 | 53 | 0 | 0.0 | 0.0 | 0.00 | 0.00 | 0.00 | 48 | 1014.8 |
| 20260506134145 | 52 | 0 | 0.0 | 0.0 | 0.00 | 0.00 | 0.00 | 48 | 1014.5 |
| 20260506133145 | 51 | 0 | 0.0 | 0.0 | 0.00 | 0.00 | 0.00 | 47 | 1014.3 |
| 20260506132145 | 50 | 0 | 0.0 | 0.0 | 0.00 | 0.00 | 0.00 | 48 | 1014.2 |
| 20260506131146 | 50 | 0 | 0.0 | 0.0 | 0.00 | 0.00 | 0.00 | 47 | 1014.1 |
| 20260506130145 | 50 | 0 | 0.0 | 0.0 | 0.00 | 0.00 | 0.00 | 49 | 1014.0 |
| 20260506124145 | 48 | 0 | 0.0 | 0.0 | 0.00 | 0.00 | 0.00 | 50 | 1014.0 |
| 20260506123145 | 48 | 0 | 0.0 | 0.0 | 0.00 | 0.00 | 0.00 | 50 | 1013.7 |
| 20260506122145 | 49 | 0 | 0.0 | 0.0 | 0.00 | 0.00 | 0.00 | 48 | 1013.7 |
| 20260506121145 | 48 | 0 | 0.0 | 0.0 | 0.00 | 0.00 | 0.00 | 48 | 1013.5 |